Regional Weather Roundup
Issued by NWS Bismarck, ND

Home | Current Version | Previous Version | Text Only | Print | Product List | Glossary On
Versions: 1 2 3 4 5 6 7 8 9 10 11 12 13 14 15 16 17 18 19 20 21 22 23 24 25 26 27 28 29 30 31 32 33 34 35 36 37 38 39 40 41 42 43 44 45 46 47 48 49 50
000
ASUS43 KBIS 122010
RWRBIS

NWR BROADCAST TEXT
NATIONAL WEATHER SERVICE BISMARCK ND
200 PM CST TUE DEC 12 2017

NOTE: "FAIR" INDICATES FEW OR NO CLOUDS BELOW 12,000 FEET WITH NO
SIGNIFICANT WEATHER AND/OR OBSTRUCTIONS TO VISIBILITY.


CITY           SKY/WX    TMP DP  RH WIND       PRES   REMARKS
WILLISTON      FAIR      45  26  47 S7        29.85F
MINOT          FAIR      50  24  36 SW21G26   29.77F
MINOT AFB      SUNNY     47  25  41 W20       29.74F
BISMARCK       FAIR      50  28  42 W12       29.86F
DICKINSON      FAIR      54  24  31 W18       29.85F
GARRISON         N/A     49  25  39 W20       29.81F
HETTINGER ARPT SUNNY     58  21  24 W15       29.94F
JAMESTOWN      FAIR      41  28  60 W15       29.80F
CARRINGTON     FAIR      43  30  61 W17       29.80F
HAZEN          FAIR      48  28  46 W14       29.86F
LINTON           N/A     46  27  46 W9        29.88F
MANDAN         FAIR      50  27  40 W13       29.85F
OAKES            N/A     39  32  75 SW13      29.85F
RUGBY          FAIR      43  28  56 W13       29.75F
STANLEY        FAIR      45  27  49 W15       29.81F HAZE
TIOGA          FAIR      43  28  56 W13       29.82F
WATFORD CITY   FAIR      50  27  40 SW13      29.85F
$$

CITY           SKY/WX    TMP DP  RH WIND       PRES   REMARKS
GRAND FORKS    CLOUDY    34  31  88 S8        29.78F
GRAND FORKS AF PTSUNNY   37  29  71 SW6       29.77F
DEVILS LAKE    SUNNY     39  28  64 SW12      29.76F
FARGO          PTSUNNY   36  29  75 SW10      29.84F
CANDO          FAIR      41  27  56 W17       29.74F
CAVALIER       FAIR      32  28  86 SE6       29.73F
GRAFTON        MOCLDY    34  28  80 S10       29.78F
GWINNER          N/A     37  30  75 SW13G21   29.85F
LANGDON        FAIR      37  32  81 SW13      29.71F
ROLLA          FAIR      37  27  65 SW21      29.69F
WALHALLA       FAIR      37  36  93 SW7       29.72F
$$

CITY           SKY/WX    TMP DP  RH WIND       PRES   REMARKS
ABERDEEN       SUNNY     47  28  47 SW15      29.91F
MOBRIDGE       SUNNY     51  27  39 W5        29.88F
BUFFALO          N/A     58  21  24 W17       29.91F
RAPID CITY     SUNNY     59  17  19 S5        30.02F
GLASGOW        CLOUDY    46  21  37 W10       29.90F
SIDNEY         SUNNY     50  28  42 S9        29.87F
WOLF POINT     CLOUDY    47  26  44 SW6       29.88F
GLENDIVE       SUNNY     55  24  30 SW13      29.92F
MILES CITY     SUNNY     57  20  23 W14       29.98F
BAKER          SUNNY     51  23  33 W22       29.96F
$$

CITY           SKY/WX    TMP DP  RH WIND       PRES   REMARKS
BILLINGS       MOSUNNY   54  20  26 SW23      30.08F
GREAT FALLS    CLOUDY    52   1  12 SW25G35   30.14F
REGINA         PTSUNNY   41  30  65 SW8       29.69F
ESTEVAN        PTSUNNY   45  28  53 SW13      29.75F
$$





USA.gov is the U.S. government's official web portal to all federal, state and local government web resources and services.